Weather in Oqqo'rg'on

Uzbekistan     40°52′43″N   69°02′54″E
temp.,
°C
wind,
m/s
gust,
m/s
humid.,
%
clouds,
%
prec.,
mm/h
press.,
hPa
HPBL,
m
8 august, mon
mon823:00+27ne46251 0.0 100281
02:00+24ne33320 0.0 100328
05:00+22wsw11375 0.0 100411
08:00+30sw11238 0.0 1005326
11:00+37wsw48153 0.0 10043309
14:00+38wnw88140 0.0 10023599
17:00+36wnw67165 0.0 10033052
20:00+29n482595 0.0 1004103
9 august, tue
tue923:00+26n343026 0.0 100446
02:00+24n22350 0.0 100419
05:00+22s11400 0.0 100513
08:00+28w01260 0.0 1006308
11:00+36nw43152 0.0 10052738
14:00+38nw771321 0.0 10033414
17:00+36nw6610100 0.0 10032818
20:00+29n4915100 0.0 1005157
10 august, wed
wed1023:00+26nne33195 0.0 100528
02:00+23nnw11230 0.0 100513
05:00+21ese11273 0.0 100611
08:00+29s11165 0.0 1007278
11:00+35nw33125 0.0 10062841
14:00+38nnw65113 0.0 10043511
17:00+36nnw85130 0.0 10033121
20:00+29n713164 0.0 1004348
11 august, thu
thu1123:00+26n715210 0.0 1005392
02:00+21nw34325 0.0 100543
05:00+19sw223899 0.0 100613
08:00+25ssw222828 0.0 1008356
11:00+33wnw331553 0.0 10071399
14:00+37nnw54122 0.0 10042722
17:00+35nw65142 0.0 10051986
20:00+29nnw612210 0.0 1006288
12 august, fri
fri1223:00+24n49320 0.0 1007136
02:00+21nne22400 0.0 100721
05:00+19wnw11450 0.0 100811
08:00+25sw23310 0.0 1009315
11:00+33w22190 0.0 10081407
14:00+38nnw32100 0.0 10052634
17:00+38n3380 0.0 10042869
20:00+28nnw45170 0.0 100461